This is the latest recevied weather packets stored in our database for station/object CX2SA-13. If no packets are shown the sender has not sent any weather packets the latest 10 day(s).
| Time | Temp. | Humidity | Pressure | Rain* | Wind** | Luminosity | Snow |
|---|---|---|---|---|---|---|---|
| 1778227185 | 9.44° C | 92% | 1004.4 hPa | 0 mm | - | - | - |
| 1778226286 | 10° C | 91% | 1004.4 hPa | 0 mm | - | - | - |
| 1778225384 | 10° C | 91% | 1004.4 hPa | 0 mm | - | - | - |
| 1778224485 | 10° C | 92% | 1004.4 hPa | 0 mm | - | - | - |
| 1778223586 | 10.56° C | 91% | 1004.7 hPa | 0 mm | - | - | - |
| 1778222684 | 10.56° C | 88% | 1004.4 hPa | 0 mm | - | - | - |
| 1778221785 | 11.11° C | 83% | 1004.7 hPa | 0 mm | - | - | - |
| 1778220884 | 11.11° C | 83% | 1004.7 hPa | 0 mm | - | - | - |
| 1778219984 | 11.67° C | 82% | 1004.7 hPa | 0 mm | - | - | - |
| 1778219085 | 11.67° C | 83% | 1004.4 hPa | 0 mm | - | - | - |
| 1778218184 | 11.67° C | 82% | 1004.4 hPa | 0 mm | - | - | - |
| 1778217285 | 11.67° C | 84% | 1004.4 hPa | 0 mm | - | - | - |
| 1778216385 | 12.22° C | 84% | 1004.4 hPa | 0 mm | - | - | - |
| 1778215484 | 12.22° C | 84% | 1004.4 hPa | 0 mm | - | - | - |
| 1778214585 | 12.22° C | 84% | 1004 hPa | 0 mm | - | - | - |
| 1778213686 | 12.22° C | 85% | 1003.7 hPa | 0 mm | - | - | - |
| 1778212784 | 12.78° C | 84% | 1003.7 hPa | 0 mm | - | - | - |
| 1778211885 | 12.78° C | 83% | 1004 hPa | 0 mm | - | - | - |
| 1778210983 | 12.78° C | 84% | 1004 hPa | 0 mm | - | - | - |
| 1778210089 | 12.78° C | 84% | 1004.4 hPa | 0 mm | - | - | - |
| 1778209185 | 12.78° C | 88% | 1004 hPa | 41.66 mm | - | - | - |
| 1778208284 | 12.78° C | 88% | 1003.7 hPa | 41.66 mm | - | - | - |
| 1778207384 | 12.22° C | 89% | 1003.7 hPa | 41.66 mm | - | - | - |
| 1778206485 | 12.22° C | 90% | 1003.7 hPa | 41.66 mm | - | - | - |
| 1778205584 | 12.22° C | 91% | 1003.7 hPa | 41.66 mm | - | - | - |
* Rain since midnight (hover to see other rain measurements)
** Current wind speed in m/s (hover to see current wind gust speed)